Weather reports worldwide

Advertisment
Lecce, Italy (16332): temperature & dewpoint: 17.07.2019 22:00:00 - 23.07.2019 22:00:00 (CEST)Lecce, Italy (16332): wind speed: 17.07.2019 22:00:00 - 23.07.2019 22:00:00 (CEST)Lecce, Italy (16332): wind direction: 17.07.2019 22:00:00 - 23.07.2019 22:00:00 (CEST)Lecce, Italy (16332): reduced air pressure: 17.07.2019 22:00:00 - 23.07.2019 22:00:00 (CEST)Lecce, Italy (16332): visibility: 17.07.2019 22:00:00 - 23.07.2019 22:00:00 (CEST)
Date & Time tt [°C] td [°C] ff [km/h] ff [kn] dd ppp [hPa] vv [km]
23.07.2019 22:00:00 25,0 20,0 24 13 NNW - 10
23.07.2019 21:00:00 26,0 21,0 21 11 NNW - 10
23.07.2019 20:00:00 27,0 20,3 29 16 NNW 1013,8 10
23.07.2019 19:00:00 30,0 17,0 28 15 NNW - 10
23.07.2019 18:00:00 31,0 17,0 24 13 NNW - 10
23.07.2019 17:00:00 30,8 17,5 24 13 N 1014,2 10
23.07.2019 16:00:00 31,0 18,0 24 13 N - 10
23.07.2019 15:00:00 31,0 19,0 22 12 N - 10
23.07.2019 14:00:00 31,0 19,4 22 12 N 1015,2 10
23.07.2019 13:00:00 31,0 21,0 26 14 N - 10
23.07.2019 12:00:00 31,0 21,0 29 16 N - 10
23.07.2019 11:00:00 30,2 20,7 28 15 N 1015,6 10
23.07.2019 10:00:00 30,0 22,0 26 14 N - 10
23.07.2019 09:00:00 28,0 25,0 24 13 N - 10
23.07.2019 08:00:00 26,2 23,5 22 12 NNW 1015,5 10
23.07.2019 07:00:00 25,0 23,0 18 10 NNW - 10
23.07.2019 06:00:00 24,0 23,0 21 11 NNW - 10
23.07.2019 05:00:00 24,0 22,6 16 9 NNW 1015,8 10
23.07.2019 04:00:00 24,0 23,0 18 10 NNW - 10
23.07.2019 03:00:00 24,0 23,0 15 8 NNW - 10
23.07.2019 02:00:00 24,0 23,2 9 5 NNW 1017,3 10
23.07.2019 01:00:00 24,0 23,0 13 7 NNW - 10
23.07.2019 00:00:00 24,0 23,0 8 4 NNW - 10
22.07.2019 23:00:00 25,6 24,6 13 7 N 1017,5 10
22.07.2019 22:00:00 26,0 24,0 15 8 N - 10
22.07.2019 21:00:00 27,0 24,0 13 7 NNW - 10
22.07.2019 20:00:00 29,0 22,5 16 9 NNW 1016,9 10
22.07.2019 19:00:00 32,0 22,0 21 11 NNW - 10
22.07.2019 18:00:00 32,0 21,0 18 10 NNW - 10
22.07.2019 17:00:00 32,8 22,9 22 12 NNW 1017,0 10
22.07.2019 16:00:00 33,0 24,0 21 11 NNW - 10
22.07.2019 15:00:00 33,0 21,0 24 13 N - 10
22.07.2019 14:00:00 33,8 22,3 22 12 N 1018,1 10
22.07.2019 13:00:00 33,0 23,0 24 13 N - 10
22.07.2019 12:00:00 32,0 22,0 26 14 N - 10
22.07.2019 11:00:00 31,2 19,9 26 14 N 1018,8 10
22.07.2019 10:00:00 29,0 17,0 24 13 N - 10
22.07.2019 09:00:00 27,0 18,0 21 11 N - 10
22.07.2019 08:00:00 22,8 18,4 11 6 N 1018,8 10
22.07.2019 07:00:00 17,0 15,0 2 1 - - 10
22.07.2019 06:00:00 16,0 14,0 2 1 - - 10
22.07.2019 05:00:00 16,8 14,4 5 3 NNW 1019,1 10
22.07.2019 04:00:00 17,0 15,0 4 2 NW - 10
22.07.2019 03:00:00 17,0 16,0 8 4 NW - 10
22.07.2019 02:00:00 17,8 16,0 4 2 WNW 1019,3 10
22.07.2019 01:00:00 18,0 16,0 4 2 WNW - 10
22.07.2019 00:00:00 19,0 17,0 2 1 - - 10
21.07.2019 23:00:00 20,0 17,6 4 2 SSW 1019,2 10
21.07.2019 22:00:00 21,0 18,0 4 2 NE - 10
21.07.2019 21:00:00 24,0 17,0 5 3 N - 10
21.07.2019 20:00:00 26,4 16,4 11 6 N 1018,4 10
21.07.2019 19:00:00 28,0 17,0 11 6 NNE - 10
21.07.2019 18:00:00 29,0 16,0 15 8 NNE - 10
21.07.2019 17:00:00 30,0 16,1 15 8 N 1018,8 10
21.07.2019 16:00:00 30,0 17,0 15 8 N - 10
21.07.2019 15:00:00 30,0 19,0 16 9 N - 10
21.07.2019 14:00:00 30,4 20,3 13 7 NE 1019,1 10
21.07.2019 13:00:00 30,0 19,0 15 8 NE - 10
21.07.2019 12:00:00 29,0 17,0 11 6 NNE - 10
21.07.2019 11:00:00 29,0 16,2 8 4 N 1019,1 10
21.07.2019 10:00:00 29,0 17,0 11 6 NNW - 10
21.07.2019 09:00:00 27,0 17,0 8 4 N - 10
21.07.2019 08:00:00 23,0 21,6 2 1 - 1018,4 10
21.07.2019 07:00:00 19,0 18,0 2 1 - - 10
21.07.2019 06:00:00 18,0 17,0 2 1 - - 10
21.07.2019 05:00:00 19,0 17,5 4 2 WNW 1018,5 10
21.07.2019 04:00:00 19,0 18,0 4 2 NNW - 10
21.07.2019 03:00:00 19,0 18,0 5 3 E - 10
21.07.2019 02:00:00 20,0 18,3 0 0 N 1018,5 10
21.07.2019 01:00:00 21,0 19,0 0 0 N - 10
21.07.2019 00:00:00 22,0 20,0 5 3 SW - 10
20.07.2019 23:00:00 22,0 20,3 4 2 SSE 1018,0 10
20.07.2019 22:00:00 25,0 19,0 0 0 N - 10
20.07.2019 21:00:00 25,0 19,0 5 3 ENE - 10
20.07.2019 20:00:00 27,2 16,5 9 5 NE 1017,8 10
20.07.2019 19:00:00 28,0 16,0 11 6 NE - 10
20.07.2019 18:00:00 30,0 17,0 15 8 NE - 10
20.07.2019 17:00:00 29,4 16,2 13 7 NNE 1018,2 10
20.07.2019 16:00:00 29,0 16,0 9 5 N - 10
20.07.2019 15:00:00 29,0 17,0 13 7 NNE - 10
20.07.2019 14:00:00 29,2 18,0 11 6 NNE 1018,2 10
20.07.2019 13:00:00 29,0 18,0 13 7 N - 10
20.07.2019 12:00:00 29,0 17,0 11 6 NNE - 10
20.07.2019 11:00:00 27,8 19,3 9 5 N 1018,2 10
20.07.2019 10:00:00 27,0 21,0 11 6 NNE - 10
20.07.2019 09:00:00 25,0 21,0 13 7 NNE - 10
20.07.2019 08:00:00 23,2 21,7 9 5 NNW 1017,0 10
20.07.2019 07:00:00 18,0 17,0 4 2 - - 10
20.07.2019 06:00:00 17,0 16,0 4 2 - - 10
20.07.2019 05:00:00 17,4 16,1 4 2 N 1016,7 10
20.07.2019 04:00:00 17,0 16,0 4 2 - - 10
20.07.2019 03:00:00 18,0 17,0 4 2 - - 10
20.07.2019 02:00:00 18,4 17,2 4 2 N 1016,7 10
20.07.2019 01:00:00 19,0 18,0 4 2 - - 10
20.07.2019 00:00:00 20,0 19,0 4 2 - - 10
19.07.2019 23:00:00 20,4 18,7 4 2 N 1016,5 10
19.07.2019 22:00:00 22,0 20,0 4 2 - - 10
19.07.2019 21:00:00 23,0 19,0 5 3 - - 10
19.07.2019 20:00:00 25,0 20,9 4 2 S 1015,4 10
19.07.2019 19:00:00 27,0 21,0 9 5 SE - 10
19.07.2019 18:00:00 26,0 20,0 11 6 E - 10
19.07.2019 17:00:00 26,0 21,7 11 6 ENE 1014,9 10
19.07.2019 16:00:00 25,0 21,0 - - - - 10
19.07.2019 15:00:00 28,0 22,0 5 3 WSW - 10
19.07.2019 14:00:00 29,0 20,5 15 8 NE 1014,8 10
19.07.2019 13:00:00 29,0 17,0 9 5 SE - 10
19.07.2019 12:00:00 28,0 17,0 5 3 N - 10
19.07.2019 11:00:00 27,0 17,2 4 2 NE 1015,4 10
19.07.2019 10:00:00 27,0 20,0 5 3 ESE - 10
19.07.2019 09:00:00 25,0 20,0 4 2 E - 10
19.07.2019 08:00:00 22,0 19,9 2 1 SE 1015,0 10
19.07.2019 07:00:00 19,0 18,0 2 1 SSE - 10
19.07.2019 06:00:00 17,0 16,0 8 4 E - 10
19.07.2019 05:00:00 17,2 16,1 5 3 ESE 1014,2 10
19.07.2019 04:00:00 18,0 17,0 5 3 ESE - 10
19.07.2019 03:00:00 19,0 18,0 4 2 ESE - 10
19.07.2019 02:00:00 18,8 17,7 2 1 SSE 1014,2 10
19.07.2019 01:00:00 20,0 18,0 2 1 NNE - 10
19.07.2019 00:00:00 20,0 18,0 2 1 E - 10
18.07.2019 23:00:00 21,0 19,1 4 2 SSE 1014,0 10
18.07.2019 22:00:00 22,0 20,0 5 3 SE - 10
18.07.2019 21:00:00 23,0 20,0 5 3 SW - 10
18.07.2019 20:00:00 25,0 16,2 13 7 WSW 1012,3 10
18.07.2019 19:00:00 27,0 18,0 11 6 WSW - 10
18.07.2019 18:00:00 27,0 21,0 8 4 E - 10
18.07.2019 17:00:00 28,0 21,1 13 7 ENE 1011,8 10
18.07.2019 16:00:00 28,0 24,0 15 8 NE - 10
18.07.2019 15:00:00 29,0 16,0 13 7 E - 10
18.07.2019 14:00:00 28,8 14,6 9 5 SSE 1011,7 10
18.07.2019 13:00:00 28,0 15,0 8 4 S - 10
18.07.2019 12:00:00 28,0 15,0 11 6 W - 10
18.07.2019 11:00:00 27,2 14,3 0 0 N 1011,8 10
18.07.2019 10:00:00 26,0 19,0 - - - - 10
18.07.2019 09:00:00 23,0 20,0 5 3 - - 10
18.07.2019 08:00:00 19,0 18,2 4 2 N 1011,6 10
18.07.2019 07:00:00 17,0 16,0 0 0 N - 10
18.07.2019 06:00:00 15,0 15,0 2 1 - - 10
18.07.2019 05:00:00 15,8 14,8 2 1 N 1011,6 10
18.07.2019 04:00:00 16,0 15,0 4 2 - - 10
18.07.2019 03:00:00 17,0 16,0 2 1 - - 10
18.07.2019 02:00:00 17,2 15,9 4 2 N 1011,9 10
18.07.2019 01:00:00 18,0 17,0 2 1 - - 10
18.07.2019 00:00:00 19,0 17,0 2 1 - - 10
17.07.2019 23:00:00 19,6 17,4 2 1 - 1011,5 10
17.07.2019 22:00:00 21,0 18,0 5 3 NW - 10

tt = temperature
td = dewpoint
ff = wind speed
dd = wind direction
ppp = reduced air pressure
vv = visibility

Next stations